Location: Newark
(45.2500°N, 7.5833°E)
Time: 00:36:29
(UTC+00:00)

Vanguard 3 - Pass Details

Date: 28 January 2020
Orbit: 508 x 3263 km, 33.3° (Epoch: 20 February)

Event Time Altitude Azimuth Distance (km) Brightness Sun altitude
Rises 16:30:03 0° 238° (WSW) 6,729 14.7 -0.8°
Reaches altitude 10° 16:34:25 10° 234° (SW) 5,927 13.4 -1.5°
Maximum altitude 16:52:47 52° 166° (SSE) 3,741 10.6 -4.5°
Drops below altitude 10° 17:09:16 10° 97° (E) 5,380 10.8 -7.2°
Enters shadow 17:11:36 - 94° (E) 5,827 10.9 -7.6°
Sets 17:12:59 0° 93° (E) 6,099 - -7.8°
